,,,PA_Meas_PMT16A,,PR_Meas_QMR101_102,,RH_Meas_QMH101,,SR_Meas_QMS101,,TA_Meas_QMH101,,GenWind,,GenWind,
date,time,status,PA,status,PR,status,RH,status,SR,status,TA,status,DirAvg,status,SpdAvg,
2010-11-14, 00:00:04,VALID,1010.25,VALID,0,VALID,102.231,VALID,0,VALID,23.5381,VALID,105,VALID,0.787891,
2010-11-14, 00:01:04,VALID,1010.24,VALID,0,VALID,102.238,VALID,0,VALID,23.5576,VALID,114,VALID,1.06133,
2010-11-14, 00:02:04,VALID,1010.24,VALID,0,VALID,102.246,VALID,0,VALID,23.5381,VALID,109,VALID,0.782422,
2010-11-14, 00:03:04,VALID,1010.2,VALID,0,VALID,102.261,VALID,0,VALID,23.5381,VALID,106,VALID,0.853906,
2010-11-14, 00:04:04,VALID,1010.21,VALID,0,VALID,102.238,VALID,0,VALID,23.5789,VALID,105,VALID,0.676562,
2010-11-14, 00:05:04,VALID,1010.16,VALID,0,VALID,102.238,VALID,0,VALID,23.5381,VALID,107,VALID,0.844922,
2010-11-14, 00:06:04,VALID,1010.17,VALID,0,VALID,102.261,VALID,0,VALID,23.5381,VALID,101,VALID,1.17344,
2010-11-14, 00:07:04,VALID,1010.16,VALID,0,VALID,102.269,VALID,0,VALID,23.5576,VALID,102,VALID,0.562109,
2010-11-14, 00:08:04,VALID,1010.12,VALID,0,VALID,102.269,VALID,0,VALID,23.5399,VALID,125,VALID,1.01797,
2010-11-14, 00:09:04,VALID,1010.09,VALID,0,VALID,102.315,VALID,0,VALID,23.5186,VALID,116,VALID,1.01523,
2010-11-14, 00:10:04,VALID,1010.09,VALID,0,VALID,102.322,VALID,0,VALID,23.5186,VALID,113,VALID,1.02773,
2010-11-14, 00:11:04,VALID,1010.08,VALID,0,VALID,102.315,VALID,0,VALID,23.5399,VALID,94,VALID,1.26836,
2010-11-14, 00:12:04,VALID,1010.04,VALID,0,VALID,102.315,VALID,0,VALID,23.5594,VALID,100,VALID,0.838672,
2010-11-14, 00:13:04,VALID,1010.01,VALID,0,VALID,102.33,VALID,0,VALID,23.5186,VALID,113,VALID,0.692578,
2010-11-14, 00:14:04,VALID,1010.02,VALID,0,VALID,102.322,VALID,0,VALID,23.5186,VALID,98,VALID,0.652734,
2010-11-14, 00:15:04,VALID,1009.97,VALID,0,VALID,102.338,VALID,0,VALID,23.5186,VALID,112,VALID,0.801562,
2010-11-14, 00:16:04,VALID,1009.93,VALID,0,VALID,102.353,VALID,0,VALID,23.5204,VALID,112,VALID,0.875,
2010-11-14, 00:17:04,VALID,1009.94,VALID,0,VALID,102.36,VALID,0,VALID,23.4992,VALID,112,VALID,0.706641,
2010-11-14, 00:18:04,VALID,1009.89,VALID,0,VALID,102.36,VALID,0,VALID,23.5204,VALID,122,VALID,0.321875,
2010-11-14, 00:19:04,VALID,1009.88,VALID,0,VALID,102.376,VALID,0,VALID,23.4992,VALID,104,VALID,0.948828,
2010-11-14, 00:20:04,VALID,1009.85,VALID,0,VALID,102.383,VALID,0,VALID,23.4797,VALID,102,VALID,0.703125,
2010-11-14, 00:21:04,VALID,1009.81,VALID,0,VALID,102.406,VALID,0,VALID,23.4815,VALID,111,VALID,0.616016,
2010-11-14, 00:22:04,VALID,1009.82,VALID,0,VALID,102.391,VALID,0,VALID,23.4992,VALID,112,VALID,0.419531,
2010-11-14, 00:23:04,VALID,1009.77,VALID,0,VALID,102.399,VALID,0,VALID,23.5009,VALID,84,VALID,1.13906,
2010-11-14, 00:24:04,VALID,1009.79,VALID,0,VALID,102.391,VALID,0,VALID,23.4797,VALID,111,VALID,0.842578,
2010-11-14, 00:25:04,VALID,1009.75,VALID,0,VALID,102.414,VALID,0,VALID,23.5009,VALID,116,VALID,1.30742,
2010-11-14, 00:26:04,VALID,1009.77,VALID,0,VALID,102.421,VALID,0,VALID,23.4602,VALID,112,VALID,0.477734,
2010-11-14, 00:27:04,VALID,1009.73,VALID,0,VALID,102.421,VALID,0,VALID,23.4602,VALID,112,VALID,0.587891,
2010-11-14, 00:28:04,VALID,1009.72,VALID,0,VALID,102.429,VALID,0,VALID,23.4602,VALID,112,VALID,0.59375,
2010-11-14, 00:29:04,VALID,1009.69,VALID,0,VALID,102.437,VALID,0,VALID,23.4602,VALID,112,VALID,0.348047,
2010-11-14, 00:30:04,VALID,1009.68,VALID,0,VALID,102.414,VALID,0,VALID,23.4815,VALID,112,VALID,0.673047,
2010-11-14, 00:31:04,VALID,1009.65,VALID,0,VALID,102.421,VALID,0,VALID,23.4797,VALID,112,VALID,0.125391,
2010-11-14, 00:32:04,VALID,1009.66,VALID,0,VALID,102.414,VALID,0,VALID,23.4815,VALID,112,VALID,0,
2010-11-14, 00:33:04,VALID,1009.68,VALID,0,VALID,102.399,VALID,0,VALID,23.5009,VALID,112,VALID,0,
2010-11-14, 00:34:04,VALID,1009.65,VALID,0,VALID,102.399,VALID,0,VALID,23.4815,VALID,111,VALID,0,
2010-11-14, 00:35:04,VALID,1009.64,VALID,0,VALID,102.429,VALID,0,VALID,23.4815,VALID,101,VALID,0.943359,
2010-11-14, 00:36:04,VALID,1009.63,VALID,0,VALID,102.421,VALID,0,VALID,23.4815,VALID,89,VALID,1.11836,
2010-11-14, 00:37:04,VALID,1009.65,VALID,0,VALID,102.429,VALID,0,VALID,23.4602,VALID,93,VALID,0.931641,
2010-11-14, 00:38:04,VALID,1009.63,VALID,0,VALID,102.452,VALID,0.105969,VALID,23.4389,VALID,107,VALID,1.11406,
2010-11-14, 00:39:04,VALID,1009.64,VALID,0,VALID,102.482,VALID,0.105969,VALID,23.4389,VALID,98,VALID,0.966406,
2010-11-14, 00:40:04,VALID,1009.65,VALID,0,VALID,102.475,VALID,0.105969,VALID,23.4194,VALID,82,VALID,0.865625,
2010-11-14, 00:41:04,VALID,1009.64,VALID,0,VALID,102.482,VALID,0.105969,VALID,23.4602,VALID,77,VALID,0.903516,
2010-11-14, 00:42:04,VALID,1009.65,VALID,0,VALID,102.467,VALID,0,VALID,23.4407,VALID,98,VALID,1.4957,
2010-11-14, 00:43:04,VALID,1009.67,VALID,0,VALID,102.498,VALID,0,VALID,23.4389,VALID,94,VALID,1.01914,
2010-11-14, 00:44:04,VALID,1009.66,VALID,0,VALID,102.505,VALID,0.105969,VALID,23.4194,VALID,87,VALID,1.4168,
2010-11-14, 00:45:04,VALID,1009.68,VALID,0,VALID,102.498,VALID,0.105969,VALID,23.4407,VALID,81,VALID,0.982813,
2010-11-14, 00:46:04,VALID,1009.66,VALID,0,VALID,102.475,VALID,0,VALID,23.4407,VALID,90,VALID,1.05234,
2010-11-14, 00:47:04,VALID,1009.68,VALID,0,VALID,102.528,VALID,0.105969,VALID,23.4,VALID,92,VALID,1.83359,
2010-11-14, 00:48:04,VALID,1009.71,VALID,0,VALID,102.513,VALID,0.105969,VALID,23.4,VALID,82,VALID,1.11719,
2010-11-14, 00:49:04,VALID,1009.69,VALID,0,VALID,102.528,VALID,0.105969,VALID,23.4194,VALID,101,VALID,1.78008,
2010-11-14, 00:50:04,VALID,1009.71,VALID,0,VALID,102.521,VALID,0.105969,VALID,23.4194,VALID,87,VALID,1.51406,
2010-11-14, 00:51:04,VALID,1009.69,VALID,0,VALID,102.559,VALID,0.105969,VALID,23.4,VALID,84,VALID,0.915234,
2010-11-14, 00:52:04,VALID,1009.67,VALID,0,VALID,102.544,VALID,0,VALID,23.4407,VALID,93,VALID,1.29727,
2010-11-14, 00:53:04,VALID,1009.67,VALID,0,VALID,102.521,VALID,0,VALID,23.4602,VALID,83,VALID,0.798828,
2010-11-14, 00:54:04,VALID,1009.67,VALID,0,VALID,102.544,VALID,0,VALID,23.4212,VALID,82,VALID,0.528906,
2010-11-14, 00:55:04,VALID,1009.67,VALID,0,VALID,102.544,VALID,0.105969,VALID,23.4,VALID,85,VALID,1.2543,
2010-11-14, 00:56:04,VALID,1009.67,VALID,0,VALID,102.528,VALID,0.105969,VALID,23.4194,VALID,87,VALID,1.38203,
2010-11-14, 00:57:04,VALID,1009.68,VALID,0,VALID,102.551,VALID,0,VALID,23.4,VALID,90,VALID,1.17695,
2010-11-14, 00:58:04,VALID,1009.67,VALID,0,VALID,102.521,VALID,0.105969,VALID,23.4407,VALID,82,VALID,0.770312,
2010-11-14, 00:59:04,VALID,1009.66,VALID,0,VALID,102.559,VALID,0.105969,VALID,23.4194,VALID,79,VALID,0.787109,
2010-11-14, 01:00:04,VALID,1009.66,VALID,0,VALID,102.528,VALID,0.105969,VALID,23.4389,VALID,106,VALID,0.957812,
2010-11-14, 01:01:04,VALID,1009.65,VALID,0,VALID,102.513,VALID,0,VALID,23.4389,VALID,86,VALID,1.09922,
2010-11-14, 01:02:04,VALID,1009.65,VALID,0,VALID,102.551,VALID,0,VALID,23.4389,VALID,92,VALID,0.999609,
2010-11-14, 01:03:04,VALID,1009.61,VALID,0,VALID,102.551,VALID,0.105969,VALID,23.4407,VALID,107,VALID,1.37266,
2010-11-14, 01:04:04,VALID,1009.64,VALID,0,VALID,102.559,VALID,0,VALID,23.4602,VALID,91,VALID,1.14219,
2010-11-14, 01:05:04,VALID,1009.62,VALID,0,VALID,102.574,VALID,0.105969,VALID,23.4407,VALID,66,VALID,1.17852,
2010-11-14, 01:06:04,VALID,1009.61,VALID,0,VALID,102.582,VALID,0.105969,VALID,23.4194,VALID,74,VALID,0.735937,
2010-11-14, 01:07:04,VALID,1009.58,VALID,0,VALID,102.612,VALID,0,VALID,23.4407,VALID,90,VALID,0.902344,
2010-11-14, 01:08:04,VALID,1009.59,VALID,0,VALID,102.551,VALID,0,VALID,23.4407,VALID,84,VALID,0.996875,
2010-11-14, 01:09:04,VALID,1009.55,VALID,0,VALID,102.559,VALID,0,VALID,23.4407,VALID,79,VALID,0.488672,
2010-11-14, 01:10:04,VALID,1009.56,VALID,0,VALID,102.559,VALID,0,VALID,23.4407,VALID,89,VALID,0.653125,
2010-11-14, 01:11:04,VALID,1009.57,VALID,0,VALID,102.589,VALID,0,VALID,23.4407,VALID,100,VALID,0.619141,
2010-11-14, 01:12:04,VALID,1009.55,VALID,0,VALID,102.582,VALID,0,VALID,23.4425,VALID,102,VALID,0.944922,
2010-11-14, 01:13:04,VALID,1009.53,VALID,0,VALID,102.612,VALID,0,VALID,23.4407,VALID,94,VALID,1.08672,
2010-11-14, 01:14:04,VALID,1009.53,VALID,0,VALID,102.612,VALID,0,VALID,23.4407,VALID,72,VALID,0.376172,
2010-11-14, 01:15:04,VALID,1009.52,VALID,0,VALID,102.589,VALID,0,VALID,23.4407,VALID,67,VALID,0.715234,
2010-11-14, 01:16:04,VALID,1009.5,VALID,0,VALID,102.605,VALID,0,VALID,23.462,VALID,49,VALID,0.671484,
2010-11-14, 01:17:04,VALID,1009.52,VALID,0,VALID,102.582,VALID,0,VALID,23.462,VALID,49,VALID,0.555469,
2010-11-14, 01:18:04,VALID,1009.49,VALID,0,VALID,102.589,VALID,0,VALID,23.4815,VALID,85,VALID,1.08086,
2010-11-14, 01:19:04,VALID,1009.47,VALID,0,VALID,102.582,VALID,0,VALID,23.4797,VALID,99,VALID,1.04883,
2010-11-14, 01:20:04,VALID,1009.44,VALID,0,VALID,102.62,VALID,0,VALID,23.4815,VALID,92,VALID,0.770703,
2010-11-14, 01:21:04,VALID,1009.43,VALID,0,VALID,102.597,VALID,0,VALID,23.4797,VALID,103,VALID,1.15195,
2010-11-14, 01:22:04,VALID,1009.46,VALID,0,VALID,102.574,VALID,0,VALID,23.4992,VALID,61,VALID,0.191016,
2010-11-14, 01:23:04,VALID,1009.43,VALID,0,VALID,102.627,VALID,0,VALID,23.5009,VALID,61,VALID,0.41875,
2010-11-14, 01:24:04,VALID,1009.44,VALID,0,VALID,102.605,VALID,0,VALID,23.4797,VALID,61,VALID,0,
2010-11-14, 01:25:04,VALID,1009.41,VALID,0,VALID,102.635,VALID,0,VALID,23.4797,VALID,61,VALID,0.0863281,
2010-11-14, 01:26:04,VALID,1009.39,VALID,0,VALID,102.62,VALID,0,VALID,23.4797,VALID,61,VALID,0,
2010-11-14, 01:27:04,VALID,1009.4,VALID,0,VALID,102.627,VALID,0,VALID,23.4797,VALID,69,VALID,0.221875,
2010-11-14, 01:28:04,VALID,1009.39,VALID,0,VALID,102.65,VALID,0,VALID,23.5009,VALID,39,VALID,0.382813,
2010-11-14, 01:29:04,VALID,1009.39,VALID,0,VALID,102.635,VALID,0,VALID,23.5009,VALID,73,VALID,0.678125,
2010-11-14, 01:30:04,VALID,1009.36,VALID,0,VALID,102.635,VALID,0,VALID,23.5009,VALID,81,VALID,0.96875,
2010-11-14, 01:31:04,VALID,1009.37,VALID,0,VALID,102.658,VALID,0,VALID,23.5009,VALID,83,VALID,1.12266,
2010-11-14, 01:32:04,VALID,1009.36,VALID,0,VALID,102.673,VALID,0,VALID,23.4602,VALID,76,VALID,0.749219,
2010-11-14, 01:33:04,VALID,1009.36,VALID,0,VALID,102.666,VALID,0,VALID,23.4602,VALID,113,VALID,0.825781,
2010-11-14, 01:34:04,VALID,1009.33,VALID,0,VALID,102.658,VALID,0,VALID,23.4797,VALID,111,VALID,0.694922,
2010-11-14, 01:35:04,VALID,1009.32,VALID,0,VALID,102.658,VALID,0,VALID,23.4797,VALID,110,VALID,0.263281,
2010-11-14, 01:36:04,VALID,1009.3,VALID,0,VALID,102.666,VALID,0,VALID,23.4797,VALID,104,VALID,0.749609,
2010-11-14, 01:37:04,VALID,1009.33,VALID,0,VALID,102.666,VALID,0,VALID,23.4797,VALID,91,VALID,0.670313,
2010-11-14, 01:38:04,VALID,1009.3,VALID,0,VALID,102.666,VALID,0,VALID,23.4992,VALID,91,VALID,0.259766,
2010-11-14, 01:39:04,VALID,1009.27,VALID,0,VALID,102.65,VALID,0,VALID,23.5204,VALID,91,VALID,0.560547,
2010-11-14, 01:40:04,VALID,1009.34,VALID,0,VALID,102.688,VALID,0,VALID,23.4797,VALID,94,VALID,0.800781,
2010-11-14, 01:41:04,VALID,1009.34,VALID,0,VALID,102.696,VALID,0,VALID,23.4797,VALID,105,VALID,1.31719,
2010-11-14, 01:42:04,VALID,1009.34,VALID,0,VALID,102.696,VALID,0,VALID,23.4602,VALID,82,VALID,0.668359,
2010-11-14, 01:43:04,VALID,1009.35,VALID,0,VALID,102.704,VALID,0,VALID,23.4797,VALID,92,VALID,0.192188,
2010-11-14, 01:44:04,VALID,1009.33,VALID,0,VALID,102.711,VALID,0,VALID,23.4602,VALID,102,VALID,0.237891,
2010-11-14, 01:45:04,VALID,1009.35,VALID,0,VALID,102.688,VALID,0,VALID,23.4797,VALID,42,VALID,0.870313,
2010-11-14, 01:46:04,VALID,1009.33,VALID,0,VALID,102.711,VALID,0,VALID,23.4602,VALID,60,VALID,0.160547,
2010-11-14, 01:47:04,VALID,1009.33,VALID,0,VALID,102.719,VALID,0,VALID,23.4602,VALID,95,VALID,1.26328,
2010-11-14, 01:48:04,VALID,1009.35,VALID,0,VALID,102.681,VALID,0,VALID,23.4797,VALID,79,VALID,1.07617,
2010-11-14, 01:49:04,VALID,1009.33,VALID,0,VALID,102.711,VALID,0,VALID,23.4602,VALID,55,VALID,0,
2010-11-14, 01:50:04,VALID,1009.32,VALID,0,VALID,102.711,VALID,0,VALID,23.4602,VALID,55,VALID,0,
2010-11-14, 01:51:04,VALID,1009.34,VALID,0,VALID,102.696,VALID,0,VALID,23.4602,VALID,55,VALID,0,
2010-11-14, 01:52:04,VALID,1009.33,VALID,0,VALID,102.704,VALID,0,VALID,23.4602,VALID,55,VALID,0,
2010-11-14, 01:53:04,VALID,1009.32,VALID,0,VALID,102.704,VALID,0.105969,VALID,23.4584,VALID,55,VALID,0,
2010-11-14, 01:54:04,VALID,1009.3,VALID,0,VALID,102.719,VALID,0.105969,VALID,23.4389,VALID,55,VALID,0,
2010-11-14, 01:55:04,VALID,1009.3,VALID,0,VALID,102.719,VALID,0.105969,VALID,23.4389,VALID,55,VALID,0,
2010-11-14, 01:56:04,VALID,1009.28,VALID,0,VALID,102.696,VALID,0.105969,VALID,23.4389,VALID,55,VALID,0,
2010-11-14, 01:57:04,VALID,1009.27,VALID,0,VALID,102.688,VALID,0.105969,VALID,23.4584,VALID,55,VALID,0,
2010-11-14, 01:58:04,VALID,1009.28,VALID,0,VALID,102.666,VALID,0.105969,VALID,23.4602,VALID,55,VALID,0,
2010-11-14, 01:59:04,VALID,1009.25,VALID,0,VALID,102.688,VALID,0,VALID,23.4389,VALID,55,VALID,0,
2010-11-14, 02:00:04,VALID,1009.27,VALID,0,VALID,102.696,VALID,0.105969,VALID,23.4389,VALID,55,VALID,0,
2010-11-14, 02:01:04,VALID,1009.27,VALID,0,VALID,102.719,VALID,0.105969,VALID,23.4389,VALID,56,VALID,0.882031,
2010-11-14, 02:02:04,VALID,1009.26,VALID,0,VALID,102.727,VALID,0,VALID,23.4194,VALID,49,VALID,0.589844,
2010-11-14, 02:03:04,VALID,1009.3,VALID,0,VALID,102.696,VALID,0.105969,VALID,23.4389,VALID,48,VALID,0.562109,
2010-11-14, 02:04:04,VALID,1009.26,VALID,0,VALID,102.749,VALID,0.105969,VALID,23.3982,VALID,11,VALID,0.769141,
2010-11-14, 02:05:04,VALID,1009.25,VALID,0,VALID,102.749,VALID,0.105969,VALID,23.4194,VALID,12,VALID,0.360938,
2010-11-14, 02:06:04,VALID,1009.27,VALID,0,VALID,102.711,VALID,0.105969,VALID,23.4194,VALID,87,VALID,0.726172,
2010-11-14, 02:07:04,VALID,1009.23,VALID,0,VALID,102.727,VALID,0,VALID,23.4389,VALID,87,VALID,0.280078,
2010-11-14, 02:08:04,VALID,1009.23,VALID,0,VALID,102.688,VALID,0,VALID,23.4407,VALID,87,VALID,0,
2010-11-14, 02:09:04,VALID,1009.24,VALID,0,VALID,102.688,VALID,0,VALID,23.4389,VALID,87,VALID,0.273438,
2010-11-14, 02:10:04,VALID,1009.25,VALID,0,VALID,102.727,VALID,0,VALID,23.4407,VALID,79,VALID,0.448438,
2010-11-14, 02:11:04,VALID,1009.29,VALID,0,VALID,102.734,VALID,0,VALID,23.4407,VALID,79,VALID,0.138281,
2010-11-14, 02:12:04,VALID,1009.31,VALID,0,VALID,102.711,VALID,0,VALID,23.4212,VALID,68,VALID,0.332031,
2010-11-14, 02:13:04,VALID,1009.31,VALID,0,VALID,102.711,VALID,0,VALID,23.4407,VALID,68,VALID,0,
2010-11-14, 02:14:04,VALID,1009.31,VALID,0,VALID,102.719,VALID,0,VALID,23.4407,VALID,68,VALID,0,
2010-11-14, 02:15:04,VALID,1009.33,VALID,0,VALID,102.704,VALID,0,VALID,23.4407,VALID,68,VALID,0,
2010-11-14, 02:16:04,VALID,1009.33,VALID,0,VALID,102.704,VALID,0,VALID,23.4407,VALID,68,VALID,0,
2010-11-14, 02:17:04,VALID,1009.31,VALID,0,VALID,102.704,VALID,0,VALID,23.4602,VALID,68,VALID,0,
2010-11-14, 02:18:04,VALID,1009.3,VALID,0,VALID,102.696,VALID,0,VALID,23.4602,VALID,68,VALID,0,
2010-11-14, 02:19:04,VALID,1009.31,VALID,0,VALID,102.704,VALID,0,VALID,23.4602,VALID,68,VALID,0,
2010-11-14, 02:20:04,VALID,1009.32,VALID,0,VALID,102.727,VALID,0,VALID,23.4407,VALID,68,VALID,0.148828,
2010-11-14, 02:21:04,VALID,1009.32,VALID,0,VALID,102.704,VALID,0,VALID,23.4407,VALID,68,VALID,0.140234,
2010-11-14, 02:22:04,VALID,1009.33,VALID,0,VALID,102.711,VALID,0,VALID,23.4194,VALID,50,VALID,0.0863281,
2010-11-14, 02:23:04,VALID,1009.34,VALID,0,VALID,102.711,VALID,0,VALID,23.4425,VALID,65,VALID,0.324219,
2010-11-14, 02:24:04,VALID,1009.34,VALID,0,VALID,102.734,VALID,0,VALID,23.4212,VALID,77,VALID,0.592188,
2010-11-14, 02:25:04,VALID,1009.36,VALID,0,VALID,102.734,VALID,0,VALID,23.4425,VALID,75,VALID,0.473828,
2010-11-14, 02:26:04,VALID,1009.37,VALID,0,VALID,102.749,VALID,0,VALID,23.4425,VALID,57,VALID,0.204688,
2010-11-14, 02:27:04,VALID,1009.37,VALID,0,VALID,102.711,VALID,0,VALID,23.4425,VALID,57,VALID,0,
2010-11-14, 02:28:04,VALID,1009.39,VALID,0,VALID,102.734,VALID,0,VALID,23.4017,VALID,39,VALID,0.308984,
2010-11-14, 02:29:04,VALID,1009.38,VALID,0,VALID,102.749,VALID,0,VALID,23.3823,VALID,63,VALID,0.015625,
2010-11-14, 02:30:04,VALID,1009.36,VALID,0,VALID,102.765,VALID,0,VALID,23.3823,VALID,48,VALID,0.241016,
2010-11-14, 02:31:04,VALID,1009.34,VALID,0,VALID,102.765,VALID,0,VALID,23.3823,VALID,72,VALID,0.735937,
2010-11-14, 02:32:04,VALID,1009.37,VALID,0,VALID,102.742,VALID,0,VALID,23.4035,VALID,65,VALID,0.765625,
2010-11-14, 02:33:04,VALID,1009.37,VALID,0,VALID,102.765,VALID,0,VALID,23.3433,VALID,39,VALID,0.148047,
2010-11-14, 02:34:04,VALID,1009.35,VALID,0,VALID,102.78,VALID,0,VALID,23.3628,VALID,14,VALID,0.604297,
2010-11-14, 02:35:04,VALID,1009.36,VALID,0,VALID,102.749,VALID,0,VALID,23.384,VALID,84,VALID,0.448047,
2010-11-14, 02:36:04,VALID,1009.36,VALID,0,VALID,102.749,VALID,0,VALID,23.3628,VALID,84,VALID,0.0285156,
2010-11-14, 02:37:04,VALID,1009.36,VALID,0,VALID,102.711,VALID,0,VALID,23.3628,VALID,84,VALID,0,
2010-11-14, 02:38:04,VALID,1009.38,VALID,0,VALID,102.742,VALID,0,VALID,23.384,VALID,99,VALID,0.142578,
2010-11-14, 02:39:04,VALID,1009.38,VALID,0,VALID,102.765,VALID,0,VALID,23.3433,VALID,360,VALID,0.428125,
2010-11-14, 02:40:04,VALID,1009.36,VALID,0,VALID,102.734,VALID,0,VALID,23.3628,VALID,360,VALID,0,
2010-11-14, 02:41:04,VALID,1009.35,VALID,0,VALID,102.711,VALID,0,VALID,23.384,VALID,360,VALID,0,
2010-11-14, 02:42:04,VALID,1009.35,VALID,0,VALID,102.742,VALID,0,VALID,23.3628,VALID,360,VALID,0.0277344,
2010-11-14, 02:43:04,VALID,1009.34,VALID,0,VALID,102.765,VALID,0,VALID,23.3238,VALID,19,VALID,0.426562,
2010-11-14, 02:44:04,VALID,1009.32,VALID,0,VALID,102.772,VALID,0,VALID,23.3043,VALID,25,VALID,0.05625,
2010-11-14, 02:45:04,VALID,1009.32,VALID,0,VALID,102.788,VALID,0,VALID,23.3256,VALID,25,VALID,0,
2010-11-14, 02:46:04,VALID,1009.3,VALID,0,VALID,102.772,VALID,0,VALID,23.3238,VALID,25,VALID,0,
2010-11-14, 02:47:04,VALID,1009.29,VALID,0,VALID,102.749,VALID,0,VALID,23.3238,VALID,25,VALID,0,
2010-11-14, 02:48:04,VALID,1009.3,VALID,0,VALID,102.742,VALID,0,VALID,23.3451,VALID,25,VALID,0,
2010-11-14, 02:49:04,VALID,1009.31,VALID,0,VALID,102.734,VALID,0,VALID,23.3256,VALID,25,VALID,0,
2010-11-14, 02:50:04,VALID,1009.29,VALID,0,VALID,102.734,VALID,0,VALID,23.3256,VALID,25,VALID,0,
2010-11-14, 02:51:04,VALID,1009.29,VALID,0,VALID,102.711,VALID,0,VALID,23.3043,VALID,25,VALID,0,
2010-11-14, 02:52:04,VALID,1009.3,VALID,0,VALID,102.765,VALID,0,VALID,23.3043,VALID,25,VALID,0,
2010-11-14, 02:53:04,VALID,1009.32,VALID,0,VALID,102.757,VALID,0,VALID,23.3061,VALID,25,VALID,0,
2010-11-14, 02:54:04,VALID,1009.27,VALID,0,VALID,102.757,VALID,0,VALID,23.3043,VALID,62,VALID,0,
2010-11-14, 02:55:04,VALID,1009.29,VALID,0,VALID,102.749,VALID,0,VALID,23.2848,VALID,63,VALID,0,
2010-11-14, 02:56:05,VALID,1009.28,VALID,0,VALID,102.734,VALID,0,VALID,23.3238,VALID,77,VALID,0,
2010-11-14, 02:57:05,VALID,1009.28,VALID,0,VALID,102.757,VALID,0,VALID,23.3061,VALID,77,VALID,0,
2010-11-14, 02:58:05,VALID,1009.26,VALID,0,VALID,102.719,VALID,0,VALID,23.3256,VALID,78,VALID,0,
2010-11-14, 02:59:05,VALID,1009.27,VALID,0,VALID,102.711,VALID,0,VALID,23.3061,VALID,78,VALID,0,
2010-11-14, 03:00:05,VALID,1009.26,VALID,0,VALID,102.727,VALID,0,VALID,23.2848,VALID,78,VALID,0,
2010-11-14, 03:01:05,VALID,1009.25,VALID,0,VALID,102.727,VALID,0,VALID,23.2848,VALID,78,VALID,0,
2010-11-14, 03:02:05,VALID,1009.25,VALID,0,VALID,102.727,VALID,0,VALID,23.3061,VALID,80,VALID,0,
2010-11-14, 03:03:05,VALID,1009.22,VALID,0,VALID,102.711,VALID,0,VALID,23.2848,VALID,84,VALID,0,
2010-11-14, 03:04:05,VALID,1009.23,VALID,0,VALID,102.711,VALID,0,VALID,23.2848,VALID,84,VALID,0,
2010-11-14, 03:05:05,VALID,1009.22,VALID,0,VALID,102.704,VALID,0,VALID,23.3043,VALID,84,VALID,0,
2010-11-14, 03:06:05,VALID,1009.19,VALID,0,VALID,102.734,VALID,0,VALID,23.2866,VALID,84,VALID,0,
2010-11-14, 03:07:05,VALID,1009.18,VALID,0,VALID,102.719,VALID,0,VALID,23.2654,VALID,84,VALID,0,
2010-11-14, 03:08:05,VALID,1009.13,VALID,0,VALID,102.719,VALID,0.105969,VALID,23.2441,VALID,84,VALID,0,
2010-11-14, 03:09:05,VALID,1009.12,VALID,0,VALID,102.704,VALID,0.105969,VALID,23.2636,VALID,84,VALID,0,
2010-11-14, 03:10:05,VALID,1009.1,VALID,0,VALID,102.734,VALID,0,VALID,23.2459,VALID,84,VALID,0,
2010-11-14, 03:11:05,VALID,1009.13,VALID,0,VALID,102.757,VALID,0,VALID,23.2264,VALID,84,VALID,0,
2010-11-14, 03:12:05,VALID,1009.14,VALID,0,VALID,102.757,VALID,0,VALID,23.2051,VALID,84,VALID,0,
2010-11-14, 03:13:05,VALID,1009.15,VALID,0,VALID,102.734,VALID,0.105969,VALID,23.2051,VALID,84,VALID,0,
2010-11-14, 03:14:05,VALID,1009.19,VALID,0,VALID,102.734,VALID,0.105969,VALID,23.2051,VALID,84,VALID,0,
2010-11-14, 03:15:05,VALID,1009.2,VALID,0,VALID,102.727,VALID,0,VALID,23.2051,VALID,84,VALID,0,
2010-11-14, 03:16:05,VALID,1009.25,VALID,0,VALID,102.734,VALID,0.105969,VALID,23.2051,VALID,84,VALID,0,
2010-11-14, 03:17:05,VALID,1009.25,VALID,0,VALID,102.704,VALID,0,VALID,23.2264,VALID,84,VALID,0,
2010-11-14, 03:18:05,VALID,1009.25,VALID,0,VALID,102.704,VALID,0.105969,VALID,23.2051,VALID,84,VALID,0,
2010-11-14, 03:19:05,VALID,1009.28,VALID,0,VALID,102.696,VALID,0.105969,VALID,23.2051,VALID,84,VALID,0,
2010-11-14, 03:20:05,VALID,1009.26,VALID,0,VALID,102.704,VALID,0.105969,VALID,23.2051,VALID,84,VALID,0,
2010-11-14, 03:21:05,VALID,1009.28,VALID,0,VALID,102.688,VALID,0.105969,VALID,23.2051,VALID,84,VALID,0,
2010-11-14, 03:22:05,VALID,1009.25,VALID,0,VALID,102.673,VALID,0.105969,VALID,23.2246,VALID,84,VALID,0,
2010-11-14, 03:23:05,VALID,1009.27,VALID,0,VALID,102.688,VALID,0,VALID,23.2459,VALID,100,VALID,0,
2010-11-14, 03:24:05,VALID,1009.24,VALID,0,VALID,102.65,VALID,0,VALID,23.2459,VALID,117,VALID,0,
2010-11-14, 03:25:05,VALID,1009.24,VALID,0,VALID,102.65,VALID,0,VALID,23.2459,VALID,117,VALID,0,
2010-11-14, 03:26:05,VALID,1009.23,VALID,0,VALID,102.65,VALID,0,VALID,23.2459,VALID,133,VALID,0,
2010-11-14, 03:27:05,VALID,1009.22,VALID,0,VALID,102.666,VALID,0,VALID,23.2476,VALID,204,VALID,0,
2010-11-14, 03:28:05,VALID,1009.21,VALID,0,VALID,102.658,VALID,0,VALID,23.2476,VALID,204,VALID,0,
2010-11-14, 03:29:05,VALID,1009.25,VALID,0,VALID,102.696,VALID,0,VALID,23.2069,VALID,204,VALID,0,
2010-11-14, 03:30:05,VALID,1009.24,VALID,0,VALID,102.696,VALID,0,VALID,23.1874,VALID,204,VALID,0,
2010-11-14, 03:31:05,VALID,1009.24,VALID,0,VALID,102.696,VALID,0,VALID,23.2087,VALID,204,VALID,0,
2010-11-14, 03:32:05,VALID,1009.25,VALID,0,VALID,102.696,VALID,0,VALID,23.1679,VALID,204,VALID,0,
2010-11-14, 03:33:05,VALID,1009.27,VALID,0,VALID,102.727,VALID,0,VALID,23.1485,VALID,204,VALID,0,
2010-11-14, 03:34:05,VALID,1009.3,VALID,0,VALID,102.719,VALID,0,VALID,23.1502,VALID,204,VALID,0,
2010-11-14, 03:35:05,VALID,1009.29,VALID,0,VALID,102.719,VALID,0,VALID,23.1485,VALID,204,VALID,0,
2010-11-14, 03:36:05,VALID,1009.27,VALID,0,VALID,102.704,VALID,0,VALID,23.129,VALID,204,VALID,0,
2010-11-14, 03:37:05,VALID,1009.28,VALID,0,VALID,102.681,VALID,0,VALID,23.1502,VALID,204,VALID,0,
2010-11-14, 03:38:05,VALID,1009.3,VALID,0,VALID,102.673,VALID,0,VALID,23.1697,VALID,204,VALID,0,
2010-11-14, 03:39:05,VALID,1009.32,VALID,0,VALID,102.681,VALID,0,VALID,23.1697,VALID,204,VALID,0,
2010-11-14, 03:40:05,VALID,1009.31,VALID,0,VALID,102.658,VALID,0,VALID,23.1485,VALID,204,VALID,0,
2010-11-14, 03:41:05,VALID,1009.33,VALID,0,VALID,102.627,VALID,0,VALID,23.1892,VALID,204,VALID,0,
2010-11-14, 03:42:05,VALID,1009.32,VALID,0,VALID,102.635,VALID,0,VALID,23.1679,VALID,204,VALID,0,
2010-11-14, 03:43:05,VALID,1009.33,VALID,0,VALID,102.605,VALID,0,VALID,23.1679,VALID,204,VALID,0,
2010-11-14, 03:44:05,VALID,1009.32,VALID,0,VALID,102.627,VALID,0,VALID,23.2087,VALID,204,VALID,0,
2010-11-14, 03:45:05,VALID,1009.35,VALID,0,VALID,102.658,VALID,0,VALID,23.1697,VALID,204,VALID,0,
2010-11-14, 03:46:05,VALID,1009.37,VALID,0,VALID,102.666,VALID,0,VALID,23.1502,VALID,204,VALID,0,
2010-11-14, 03:47:05,VALID,1009.37,VALID,0,VALID,102.666,VALID,0,VALID,23.1697,VALID,204,VALID,0,
2010-11-14, 03:48:05,VALID,1009.38,VALID,0,VALID,102.666,VALID,0,VALID,23.129,VALID,204,VALID,0,
2010-11-14, 03:49:05,VALID,1009.4,VALID,0,VALID,102.658,VALID,0,VALID,23.1502,VALID,204,VALID,0,